Voltar ao catálogo

THORAD AGENA D DEB

AtivoLEO
NORAD 4143·DEBRIS·🇺🇸 United States

Lançado Sep 30, 1969 de Vandenberg Space Force Base

Loading…

Próximas Passagens (próximas 24 horas)

TLE

AtualizadoSource: Space-Track

Época: Sep 14, 2026, 10:43 UTC

1 04143U 69082M   26257.44657670  .00000231  00000-0  13216-3 0  9990
2 04143  70.1109  55.8725 0022669 315.7790  44.1517 14.20815433930859

Acompanhe THORAD AGENA D DEB em tempo real com AllMySat

Download on the App Store